GFSFLT2_2pvu_pres_024.txt.gz
Presure
120 111 116 137 124 127 103 143 117 155 126 109 127 131 118 109 159 119 111 138 120 127 123 120 111 134 129 143 165 237 220 196
133 111 136 80 143 137 142 151 155 117 130 145 121 126 143 119 115 137 125 121 117 121 132 131 127 133 136 130 232 224 213 191
141 140 141 114 143 141 130 134 123 118 108 124 119 110 120 118 119 124 124 125 121 128 135 128 132 136 216 205 197 202 204 208
142 113 134 118 123 108 133 110 116 116 109 107 124 112 115 119 118 116 119 129 126 132 123 135 193 198 209 204 199 203 194 193
139 138 137 115 138 131 114 129 141 113 115 124 144 126 117 120 117 123 122 129 130 132 133 206 205 205 205 198 198 201 207 205
165 145 123 132 126 122 119 147 141 120 137 120 121 120 125 126 126 128 135 133 117 217 198 213 196 201 208 198 198 197 191 198
153 118 123 139 129 143 132 127 117 140 121 118 124 122 129 126 127 167 133 142 185 192 222 209 208 200 194 193 196 203 204 202
121 146 150 123 123 133 120 116 123 119 120 124 127 129 132 130 139 132 170 121 202 200 191 202 216 194 193 154 204 199 196 222
141 169 120 124 141 133 110 121 118 125 124 129 132 139 126 131 131 147 198 191 188 215 203 191 196 193 193 213 221 227 237 215
124 115 120 118 118 117 119 121 124 119 126 129 127 142 156 218 217 195 208 199 197 200 180 191 196 194 191 209 223 214 226 209
120 170 115 117 122 124 134 122 119 126 125 138 143 210 134 177 205 194 220 193 190 189 191 197 223 228 225 223 215 206 203 210
199 164 124 133 123 131 124 122 123 126 132 134 198 202 197 173 191 191 190 190 221 220 222 218 228 217 208 204 207 209 208 207
144 141 118 116 119 126 127 129 132 134 171 146 204 195 194 195 194 195 209 222 216 222 221 209 202 203 208 212 209 211 211 206
119 126 125 138 132 125 127 130 196 189 134 206 205 213 228 229 223 217 216 224 211 204 201 197 205 203 203 222 227 221 214 209
203 139 132 129 140 143 179 202 210 204 225 225 223 219 215 212 220 218 206 206 197 204 195 202 212 223 221 208 202 199 202 207
194 210 211 217 216 225 241 230 194 215 213 215 214 223 218 209 205 199 199 204 197 198 210 211 202 200 196 192 203 205 213 221
218 226 227 213 197 227 228 220 216 215 233 224 206 205 203 195 203 205 200 196 199 213 195 203 200 196 201 203 214 213 207 241
216 212 209 214 213 214 223 240 226 226 221 205 197 195 203 202 202 196 196 213 208 195 201 194 196 193 203 211 214 228 240 229
224 209 140 164 207 220 226 225 218 210 206 203 203 203 199 197 194 202 210 200 197 196 194 194 192 204 211 218 237 240 232 217
120 120 124 126 208 228 218 202 210 211 205 201 203 200 193 192 206 204 192 193 195 197 189 192 205 203 220 232 240 225 221 233

GFSFLT2_2pvu_pres_030.txt.gz
Presure
131 126 133 127 125 140 134 132 144 138 121 106 143 127 155 131 120 119 115 116 120 115 124 122 108 109 108 119 111 116 117 121
131 144 135 120 131 144 125 135 145 152 127 160 125 104 142 115 100 123 134 114 129 110 91 126 110 108 113 119 121 116 117 112
141 137 118 130 139 138 135 151 121 131 151 157 110 144 154 146 127 116 109 115 130 114 151 112 123 115 118 117 121 117 119 117
125 118 131 137 142 136 135 126 134 144 156 150 189 97 156 107 112 116 117 120 131 117 113 120 127 115 118 118 122 137 123 130
235 236 139 136 121 128 126 142 140 142 142 128 112 137 159 115 118 116 134 139 117 113 119 114 115 112 119 117 135 132 138 136
240 110 119 129 137 119 131 133 118 133 145 115 103 150 117 123 125 146 143 103 115 117 122 128 118 116 118 124 131 127 148 109
124 159 136 129 126 134 124 123 136 137 139 141 128 135 108 130 121 158 126 118 116 112 116 143 119 121 134 147 133 157 139 193
229 235 154 133 134 130 141 138 127 141 181 139 154 118 123 127 121 142 124 131 120 119 119 119 131 142 136 136 174 127 200 206
205 126 174 227 131 131 137 144 205 127 126 133 119 160 203 122 113 112 119 118 129 127 124 131 135 141 134 146 187 194 134 231
206 169 218 138 217 230 156 127 138 127 193 126 154 193 133 116 124 123 110 124 131 137 135 150 139 140 153 204 228 228 217 207
213 215 151 214 206 130 194 123 207 207 126 137 179 128 123 116 116 122 124 138 138 159 147 164 165 210 227 225 212 214 222 207
206 204 212 185 208 214 207 153 129 139 178 134 142 119 117 170 125 159 134 144 185 164 207 218 211 200 210 226 216 211 196 204
124 211 222 145 136 135 215 136 199 210 135 133 129 126 122 136 134 144 189 135 212 219 259 220 227 222 221 204 211 210 200 201
213 130 139 233 133 172 208 189 205 129 134 122 128 144 148 159 169 187 210 216 145 217 208 218 222 213 206 201 211 201 199 207
216 203 209 220 224 204 227 160 125 205 199 191 201 191 204 210 213 207 207 204 236 218 218 213 209 200 204 201 194 206 211 217
138 137 205 200 137 152 193 215 148 140 199 207 209 198 206 213 224 225 223 218 217 220 210 203 204 209 194 204 196 212 212 205
200 198 195 195 125 196 202 203 200 201 201 204 219 228 230 212 212 220 241 213 213 206 202 203 196 193 206 193 203 205 205 206
205 204 139 200 160 201 200 213 226 222 217 226 221 212 204 230 236 227 198 207 202 196 212 200 200 196 204 204 203 199 203 196
222 218 235 235 232 229 223 220 221 218 207 211 216 225 215 222 223 203 198 204 196 198 202 195 206 203 205 205 195 201 196 193
219 215 212 216 223 225 214 209 206 201 221 217 218 204 219 211 203 203 216 212 205 206 206 204 202 206 202 193 197 197 195 211

GFSFLT2_2pvu_pres_033.txt.gz
Presure
110 184 112 126 126 129 131 140 137 130 122 124 137 134 139 141 115 121 129 122 141 111 102 109 118 128 120 128 100 121 119 116
222 195 223 135 137 118 129 138 136 117 122 120 135 147 104 141 109 118 143 147 103 117 160 138 122 121 122 163 131 112 111 121
145 161 152 148 127 139 130 133 139 142 138 107 134 136 147 123 138 155 107 143 114 110 136 118 120 130 115 124 126 113 123 118
201 188 129 129 120 133 125 115 123 140 131 135 137 121 126 148 151 135 135 157 132 139 122 128 133 116 138 122 115 111 113 121
222 195 132 131 109 133 125 133 141 126 130 118 122 140 146 149 146 134 137 157 162 153 145 121 121 133 145 127 111 121 119 117
196 179 192 132 117 111 125 137 106 121 129 135 140 144 190 106 137 111 145 119 145 120 118 119 138 142 111 123 120 117 115 117
228 214 217 206 163 176 176 127 138 145 131 122 141 130 115 132 119 131 113 133 135 139 123 137 113 138 117 118 117 122 125 127
225 215 123 143 151 211 217 138 124 124 134 137 120 120 127 139 138 144 140 142 148 113 110 128 117 142 119 122 120 135 136 136
237 227 128 127 201 143 128 125 127 118 210 119 125 137 138 127 138 135 133 143 112 140 147 120 113 119 122 123 130 139 146 143
243 220 232 133 139 212 208 187 121 140 210 133 200 125 170 145 129 126 134 126 146 143 140 122 122 117 127 187 193 141 205 238
220 224 226 226 164 220 212 127 126 172 123 132 163 198 131 129 143 163 199 115 203 138 117 119 199 150 186 168 141 174 225 216
206 211 213 198 187 200 196 192 204 153 201 197 134 159 134 196 206 151 173 183 123 135 136 128 165 156 141 189 205 229 228 224
205 202 203 215 203 222 215 212 225 129 202 120 202 209 127 209 132 189 121 191 133 126 204 201 191 189 215 232 232 221 213 216
145 127 172 218 203 194 124 204 210 202 189 199 205 197 148 194 190 193 140 177 201 190 198 202 212 233 233 218 223 220 212 187
166 146 191 210 211 172 182 122 138 168 157 122 132 183 190 161 179 205 204 194 206 223 208 214 226 209 228 225 220 208 206 218
211 212 209 219 221 227 221 233 239 224 179 185 180 198 210 216 146 201 213 204 206 230 234 231 224 230 213 205 209 196 200 204
204 198 201 205 201 213 208 208 209 209 123 133 208 133 208 206 203 203 216 237 219 232 215 220 221 202 208 209 193 193 192 189
146 214 203 202 205 205 205 205 179 173 204 202 202 202 235 227 229 224 216 213 214 213 227 202 212 216 208 216 207 205 207 205
202 205 204 206 206 213 209 211 210 217 223 219 227 221 215 216 208 233 233 223 227 205 209 218 224 206 213 207 203 204 203 204
216 213 217 222 228 228 223 220 217 223 225 219 212 210 208 225 222 211 208 217 201 212 218 207 208 206 202 203 203 200 198 199

GFSFLT2_2pvu_pres_039.txt.gz
Presure
169 164 176 125 171 159 141 123 208 121 229 201 114 122 139 108 95 131 115 139 141 135 145 118 115 104 130 139 126 136 144 142
191 145 88 173 188 143 181 169 156 120 119 214 143 211 131 129 147 122 144 137 146 152 151 150 142 142 139 138 124 119 126 124
159 172 162 166 183 194 192 182 89 169 222 112 238 123 124 251 141 137 130 102 127 128 135 142 146 130 133 134 112 130 137 142
167 165 118 160 169 192 189 216 210 168 210 231 184 159 153 180 134 111 143 127 130 133 134 140 143 133 124 144 108 99 135 139
163 177 172 175 190 198 179 194 165 126 189 177 225 233 213 219 131 133 131 136 139 133 128 132 133 137 135 139 145 145 117 107
194 181 190 181 119 187 185 191 189 175 205 141 174 84 223 227 214 220 162 128 142 143 140 144 132 148 131 121 141 120 133 116
195 191 206 204 196 182 179 127 195 181 91 199 155 186 143 158 99 127 131 116 133 127 140 127 136 144 132 135 130 133 134 148
204 198 137 198 185 186 191 193 187 182 209 231 213 211 164 127 147 113 119 123 135 131 136 130 114 121 122 145 184 131 127 163
185 190 186 182 201 183 185 184 185 191 200 194 191 193 191 196 203 131 207 194 140 128 128 120 134 190 146 145 122 134 134 197
195 179 193 195 184 190 184 191 188 194 202 195 195 200 201 206 134 187 177 148 167 127 143 174 126 129 140 195 134 134 210 120
180 193 198 186 187 187 182 183 188 199 206 193 195 197 186 213 195 200 174 187 213 128 121 191 139 197 161 178 190 179 160 204
169 174 201 199 186 189 184 186 184 226 218 199 198 200 200 202 134 131 159 175 170 215 182 184 187 190 138 129 190 155 127 181
191 185 191 192 194 199 155 192 189 208 204 202 205 208 198 197 135 133 209 208 218 216 217 193 212 195 187 127 198 200 202 196
192 192 185 186 204 194 188 184 186 178 206 225 210 199 197 202 207 207 190 188 179 185 184 168 172 175 200 202 198 199 188 189
218 227 237 250 214 221 193 198 206 213 158 201 203 210 205 200 171 203 204 200 199 178 207 202 202 189 204 175 195 190 201 219
216 237 231 228 237 238 217 221 213 210 208 215 197 195 199 204 204 193 194 200 200 197 194 147 194 190 197 225 220 213 218 249
231 209 209 213 213 209 210 210 204 209 197 194 200 202 208 211 212 213 140 210 211 214 212 214 212 206 208 208 226 215 207 226
213 200 193 197 207 210 211 207 202 198 202 199 205 205 200 201 201 204 208 206 206 207 208 217 234 230 216 214 222 229 225 216
207 205 206 209 211 212 203 204 203 212 204 200 201 204 201 206 206 204 220 223 222 224 222 225 214 205 216 222 221 225 212 209
229 216 214 218 217 215 221 217 206 202 201 201 204 199 222 224 231 224 215 210 217 214 213 210 227 224 222 216 216 211 212 204

GFSFLT2_2pvu_pres_042.txt.gz
Presure
191 179 171 175 172 182 166 187 187 164 173 182 112 148 185 114 127 119 132 119 133 135 135 143 100 124 141 141 145 136 102 136
181 187 173 117 117 108 130 191 188 131 186 112 176 197 137 113 156 236 199 124 102 139 132 96 130 146 129 143 134 103 133 155
179 184 151 191 91 163 97 169 182 183 197 197 141 111 142 173 154 140 146 134 140 167 112 138 127 139 148 122 128 130 130 144
177 173 184 160 168 181 183 144 186 183 187 109 107 164 215 171 233 184 179 239 168 122 242 186 177 139 124 125 133 133 146 124
177 189 170 169 174 152 172 163 175 185 178 203 169 141 210 223 178 190 177 120 203 232 151 143 173 130 228 137 142 132 128 142
202 172 186 179 165 181 170 185 165 188 201 177 195 190 181 149 158 168 172 222 227 212 138 226 150 145 132 144 154 124 114 124
189 184 176 179 177 194 179 170 169 178 182 211 188 190 171 173 189 213 149 168 204 200 188 126 134 143 125 134 116 130 131 123
173 194 194 188 187 173 176 174 187 199 165 180 174 186 180 187 180 204 203 190 130 115 203 145 167 124 136 127 126 119 170 158
183 126 166 173 176 179 186 187 178 191 193 200 184 182 183 186 192 198 194 186 193 199 201 203 134 102 202 140 129 197 128 125
171 176 182 183 179 191 184 188 192 178 174 167 194 183 185 193 197 195 210 192 203 205 206 200 187 131 140 199 196 139 190 195
192 183 191 181 180 193 193 172 181 197 211 178 193 192 184 183 188 219 205 197 196 206 205 199 195 203 191 186 191 212 205 199
203 203 200 193 178 185 178 194 176 183 189 203 173 183 180 191 186 203 206 197 203 204 199 179 201 213 180 216 203 202 190 202
203 181 196 204 167 178 198 162 171 180 178 189 191 176 198 183 188 213 187 198 193 228 205 213 196 192 193 119 209 190 190 193
203 183 181 190 169 166 164 172 171 176 193 193 150 126 171 183 194 194 213 215 204 200 201 194 193 193 202 193 192 194 199 196
185 189 180 175 175 188 182 184 176 186 193 180 185 192 207 197 191 187 167 200 195 195 195 193 199 193 193 191 190 197 190 194
205 201 190 191 190 195 187 188 193 191 195 205 208 192 221 211 204 199 195 193 208 199 193 199 215 201 195 207 207 205 206 206
245 190 179 182 190 230 220 185 206 201 242 231 214 212 204 200 198 193 196 192 195 205 195 196 203 199 204 204 208 234 223 214
211 201 199 204 208 222 229 223 225 215 209 201 199 202 206 201 203 186 147 200 196 203 203 201 208 215 216 229 219 213 218 228
221 221 220 219 234 222 212 215 210 200 201 201 201 199 198 198 199 199 196 199 218 228 243 249 236 228 216 196 215 217 218 199
217 215 218 213 219 207 210 207 215 214 206 213 218 213 229 214 204 217 219 211 219 241 220 221 199 195 216 216 212 215 213 213